SXS22AB LTAI-EDDL

Flight info

Callsign SXS22AB
Flight time N/A
Altitude 36000
Route EKNUD1F/36R EKNUD UQ26 DIGBO UL615 VADEN DCT UTEKA DCT BABIT DCT SASAL DCT LAMSI DCT TESDU DCT AMETU T852 TINSA T854 DOMUX DOMUX1A
Aircraft B738/M-SDE2E3FGHIRWXY/LB1

Departure

Time 2026-05-04 17:04
Airport Antalya International Airport (LTAI)

Arrival

Time N/A
Airport Düsseldorf Airport (EDDL)
Time Latitude Longitude Altitude Speed Heading
2026-05-04 16:45 36.89823 30.80242 191 ft 0 kts 291°
2026-05-04 16:52 36.89809 30.80277 204 ft 4 kts 307°
2026-05-04 16:52 36.89790 30.80301 201 ft 4 kts 324°
2026-05-04 16:53 36.89741 30.80324 203 ft 4 kts 356°
2026-05-04 16:53 36.89662 30.80307 196 ft 4 kts 17°
2026-05-04 16:54 36.89637 30.80300 196 ft 4 kts 352°
2026-05-04 16:55 36.89563 30.80356 201 ft 4 kts
2026-05-04 16:55 36.89590 30.80343 196 ft 4 kts 332°
2026-05-04 16:56 36.89592 30.80341 195 ft 1 kts 332°
2026-05-04 16:57 36.89590 30.80343 196 ft 4 kts 332°
2026-05-04 16:57 36.89540 30.80354 193 ft 0 kts
2026-05-04 16:58 36.89554 30.80356 201 ft 6 kts
2026-05-04 16:59 36.89570 30.80536 191 ft 15 kts 96°
2026-05-04 17:00 36.89234 30.80646 206 ft 14 kts 186°
2026-05-04 17:00 36.88958 30.80607 206 ft 13 kts 186°
2026-05-04 17:01 36.88780 30.80581 195 ft 14 kts 186°
2026-05-04 17:01 36.88569 30.80552 192 ft 17 kts 186°
2026-05-04 17:02 36.88343 30.80523 197 ft 16 kts 185°
2026-05-04 17:02 36.88143 30.80548 191 ft 15 kts 112°
2026-05-04 17:03 36.88130 30.80673 189 ft 14 kts 94°
2026-05-04 17:03 36.88195 30.80740 196 ft 15 kts
2026-05-04 17:03 36.89442 30.80909 203 ft 160 kts
2026-05-04 17:04 36.92033 30.81445 1282 ft 212 kts
2026-05-04 17:04 36.94900 30.82791 3011 ft 216 kts 25°
2026-05-04 17:05 36.97726 30.84279 4166 ft 229 kts 23°
2026-05-04 17:05 37.00852 30.85859 5016 ft 263 kts 23°
2026-05-04 17:06 37.04375 30.87584 6351 ft 278 kts 22°
2026-05-04 17:06 37.06192 30.88465 7096 ft 282 kts 20°
2026-05-04 17:07 37.10114 30.88435 8597 ft 289 kts 348°
2026-05-04 17:07 37.11423 30.88104 9089 ft 291 kts 347°
2026-05-04 17:07 37.14093 30.87395 9857 ft 296 kts 347°
2026-05-04 17:07 37.16128 30.86858 9917 ft 301 kts 347°
2026-05-04 17:08 37.18192 30.86323 9924 ft 304 kts 347°
2026-05-04 17:08 37.22281 30.85484 10062 ft 303 kts 356°
2026-05-04 17:08 37.24464 30.85364 10240 ft 325 kts 358°
2026-05-04 17:09 37.26809 30.85290 10417 ft 346 kts 358°
2026-05-04 17:09 37.29258 30.85214 10894 ft 356 kts 358°
2026-05-04 17:09 37.31747 30.85127 11615 ft 358 kts 358°
2026-05-04 17:10 37.36762 30.84913 13049 ft 364 kts 356°
2026-05-04 17:10 37.44409 30.84538 15075 ft 370 kts 357°
2026-05-04 17:11 37.46956 30.84411 15715 ft 372 kts 357°
2026-05-04 17:11 37.49549 30.84279 16380 ft 373 kts 357°
2026-05-04 17:11 37.54778 30.84009 17606 ft 379 kts 358°
2026-05-04 17:12 37.57418 30.83872 18250 ft 381 kts 358°
2026-05-04 17:12 37.62760 30.83599 19211 ft 388 kts 359°
2026-05-04 17:13 37.70910 30.83180 20734 ft 395 kts 359°
2026-05-04 17:14 37.79233 30.82752 22254 ft 402 kts
2026-05-04 17:14 37.82039 30.82607 22773 ft 403 kts
2026-05-04 17:14 37.87642 30.82317 23700 ft 408 kts
2026-05-04 17:15 37.90489 30.82169 24032 ft 411 kts
2026-05-04 17:15 37.96254 30.81870 24691 ft 417 kts
2026-05-04 17:16 38.02104 30.81565 25312 ft 423 kts
2026-05-04 17:16 38.10989 30.81101 26227 ft 433 kts
2026-05-04 17:17 38.14016 30.80883 26502 ft 437 kts 357°
2026-05-04 17:17 38.23167 30.79404 27372 ft 446 kts 354°
2026-05-04 17:18 38.26253 30.78854 27626 ft 449 kts 354°
2026-05-04 17:18 38.32471 30.77782 28217 ft 453 kts 355°
2026-05-04 17:19 38.38758 30.76734 28720 ft 458 kts 355°
2026-05-04 17:19 38.45061 30.75692 29389 ft 459 kts 355°
2026-05-04 17:20 38.51411 30.74639 30112 ft 459 kts 355°
2026-05-04 17:20 38.57736 30.73588 30726 ft 457 kts 355°
2026-05-04 17:20 38.60892 30.73062 30976 ft 458 kts 354°
2026-05-04 17:21 38.67179 30.72014 31540 ft 457 kts 354°
2026-05-04 17:21 38.73475 30.70963 32102 ft 457 kts 354°
2026-05-04 17:22 38.76611 30.70438 32427 ft 445 kts 353°
2026-05-04 17:22 38.79605 30.69934 33571 ft 422 kts 353°
2026-05-04 17:23 38.87937 30.67343 34554 ft 417 kts 335°
2026-05-04 17:23 38.90510 30.65676 34637 ft 419 kts 334°
2026-05-04 17:23 38.95702 30.62233 34998 ft 420 kts 334°
2026-05-04 17:24 38.98308 30.60511 35126 ft 421 kts 334°
2026-05-04 17:24 39.06153 30.55367 35599 ft 422 kts 334°
2026-05-04 17:25 39.08777 30.53653 35732 ft 423 kts 334°
2026-05-04 17:25 39.14036 30.50214 36018 ft 424 kts 334°
2026-05-04 17:26 39.19325 30.46750 36045 ft 427 kts 334°
2026-05-04 17:27 39.32431 30.38137 36054 ft 421 kts 334°
2026-05-04 17:28 39.42844 30.31269 36073 ft 419 kts 334°
2026-05-04 17:29 39.58794 30.21796 36058 ft 422 kts 340°
2026-05-04 17:31 39.71561 30.15048 36054 ft 426 kts 339°
2026-05-04 17:32 39.85281 30.07683 36058 ft 429 kts 340°
2026-05-04 17:33 39.96308 30.01743 36059 ft 428 kts 340°
2026-05-04 17:34 40.07303 29.95792 36074 ft 427 kts 340°
2026-05-04 17:35 40.20948 29.88376 36056 ft 425 kts 340°
2026-05-04 17:36 40.26401 29.85403 36046 ft 424 kts 340°
2026-05-04 17:36 40.31835 29.82435 36055 ft 423 kts 340°
2026-05-04 17:37 40.37257 29.79469 36046 ft 422 kts 340°
2026-05-04 17:37 40.42670 29.76503 36051 ft 421 kts 340°
2026-05-04 17:38 40.48078 29.73533 36044 ft 421 kts 340°
2026-05-04 17:38 40.53471 29.70567 36041 ft 419 kts 340°
2026-05-04 17:39 40.61544 29.66118 36039 ft 419 kts 340°
2026-05-04 17:39 40.66791 29.62851 36035 ft 422 kts 330°
2026-05-04 17:40 40.71474 29.58114 36037 ft 426 kts 324°
2026-05-04 17:40 40.76070 29.53186 36044 ft 426 kts 325°
2026-05-04 17:41 40.80682 29.48281 36045 ft 426 kts 325°
2026-05-04 17:41 40.85313 29.43386 36049 ft 426 kts 325°
2026-05-04 17:42 40.89952 29.38483 36046 ft 427 kts 325°
2026-05-04 17:42 40.94594 29.33568 36050 ft 428 kts 325°
2026-05-04 17:43 40.99207 29.28673 36050 ft 428 kts 325°
2026-05-04 17:43 41.03862 29.23724 36038 ft 429 kts 325°
2026-05-04 17:44 41.08516 29.18767 36037 ft 429 kts 325°
2026-05-04 17:44 41.13011 29.13512 36030 ft 434 kts 315°
2026-05-04 17:45 41.16526 29.06938 36036 ft 439 kts 307°
2026-05-04 17:45 41.19856 29.00132 36047 ft 439 kts 307°
2026-05-04 17:46 41.23182 28.93390 36043 ft 439 kts 307°
2026-05-04 17:46 41.26550 28.86617 36045 ft 439 kts 308°
2026-05-04 17:47 41.29923 28.79842 36049 ft 439 kts 307°
2026-05-04 17:47 41.33294 28.73056 36043 ft 439 kts 307°
2026-05-04 17:48 41.36657 28.66267 36048 ft 439 kts 307°
2026-05-04 17:48 41.40012 28.59479 36047 ft 438 kts 307°
2026-05-04 17:49 41.43358 28.52693 36048 ft 438 kts 307°
2026-05-04 17:49 41.46697 28.45907 36047 ft 437 kts 307°
2026-05-04 17:50 41.50030 28.39121 36048 ft 437 kts 307°
2026-05-04 17:50 41.53342 28.32366 36051 ft 437 kts 307°
2026-05-04 17:51 41.56659 28.25585 36050 ft 436 kts 307°
2026-05-04 17:51 41.59980 28.18781 36053 ft 436 kts 307°
2026-05-04 17:52 41.63290 28.11983 36056 ft 436 kts 306°
2026-05-04 17:52 41.66595 28.05182 36057 ft 436 kts 306°
2026-05-04 17:53 41.69879 27.98406 36060 ft 436 kts 306°
2026-05-04 17:53 41.73175 27.91592 36055 ft 436 kts 306°
2026-05-04 17:54 41.76453 27.84800 36063 ft 436 kts 306°
2026-05-04 17:54 41.79741 27.77972 36060 ft 436 kts 306°
2026-05-04 17:55 41.83034 27.71118 36061 ft 437 kts 306°